User: anonymous   Login
Location: Great Northern Moose Lodge
(44.6765°N, 71.1811°W)
Time: 04:48:17
(UTC-04:00)
Language:

Terra - Orbit

View from above orbital plane
View from above orbital plane
View from above satellite
View from above satellite

Ground track
Ground track

The orbit data is extracted from the following two-line orbital elements,

1 25994U 99068A   16205.75907297  .00000153  00000-0  44079-4 0  9998
2 25994  98.2086 279.5415 0001043  53.8480 306.2811 14.57118683882848
Epoch (UTC): 23 July 2016 18:13:03
Eccentricity: 0.0001043
inclination: 98.2086°
perigee height: 702 km
apogee height: 703 km
right ascension of ascending node: 279.5415°
argument of perigee: 53.8480°
revolutions per day: 14.57118683
mean anomaly at epoch: 306.2811°
orbit number at epoch: 88284

The dashed part of the orbit path shows where the satellite is in the earth's shadow,  

DLR